Skip Page Navigation
NASA JPL Caltech
NASA Logo - Jet Propulsion Laboratory + View the NASA Portal
+ Near-Earth Object (NEO) Program
Search JPL
JPL Home Earth Solar System Stars & Galaxies Technology
JPL Solar System Dynamics
BODIES ORBITS EPHEMERIDES TOOLS PHYSICAL DATA DISCOVERY FAQ SITE MAP
JPL Small-Body Database Browser
Search: [ help ]  
10241 Milicevic (1999 AU6)
Classification: Main-belt Asteroid          SPK-ID: 2010241
Ephemeris | Orbit Diagram | Orbital Elements | Physical Parameters | Discovery Circumstances | Close-Approach Data ]

[ show orbit diagram ]
Orbital Elements at Epoch 2457000.5 (2014-Dec-09.0) TDB
Reference: JPL 18 (heliocentric ecliptic J2000)
 Element Value Uncertainty (1-sigma)   Units 
e .1558677954399617 5.6108e-08  
a 3.053433151688298 2.7103e-08 AU
q 2.577501257811349 1.6519e-07 AU
i 1.606334621607536 5.5369e-06 deg
node 151.7541357161738 0.00022338 deg
peri 189.0965882850288 0.00022468 deg
M 125.3458760782308 2.1954e-05 deg
tp 2456321.939459663897
(2013-Jan-29.43945966)
0.00011725 JED
period 1948.861838649848
5.34
2.5948e-05
7.104e-08
d
yr
n .1847232024664223 2.4595e-09 deg/d
Q 3.529365045565247 3.1327e-08 AU
  Orbit Determination Parameters
   # obs. used (total)      1200  
   data-arc span      12203 days (33.41 yr)  
   first obs. used      1981-10-25  
   last obs. used      2015-03-24  
   planetary ephem.      DE431  
   SB-pert. ephem.      SB431-BIG16  
   condition code      0  
   fit RMS      .53617  
   data source      ORB  
   producer      Otto Matic  
   solution date      2015-Apr-07 16:37:25  

Additional Information
 Earth MOID = 1.56954 AU 
 T_jup = 3.217 
[ show covariance matrix ]

Ephemeris | Orbit Diagram | Orbital Elements | Physical Parameters | Discovery Circumstances | Close-Approach Data ]

Physical Parameter Table
Parameter Symbol Value Units Sigma Reference Notes
absolute magnitude H 13.5 mag n/a PDS3 (MPC 33916)  

10241 Miličevi{c´}           Discovered 1999 Jan. 9 by K. Korlevic at Visnjan.
Don Nikola Miličevi{c´} (1887-1963) was last administrator of Blaca Hermitage on Brač, Croatia. In Blaca he observed double stars, searched for comets and novae and published an amateur astronomy newsletter.
NOTE: some special characters may not display properly (any characters within {} are an attempt to place the proper accent above a character)
Reference: 20051215/MPCPages.arcLast Updated: 2006-03-22

[ show close-approach data ]
Alternate Designations
 1999 AU6 = 1981 UX24 = 1996 KB1 = 1997 WB49 
Ephemeris | Orbit Diagram | Orbital Elements | Physical Parameters | Discovery Circumstances | Close-Approach Data ]
ABOUT SSD CREDITS/AWARDS PRIVACY/COPYRIGHT GLOSSARY LINKS
FirstGov 2015-May-25 03:24 UT
(server date/time)  
NASA Home Page
Site Manager:   Ryan S. Park
Webmaster  Alan B. Chamberlin